GW5874 Weather Reports


time (UTC)temp
C
wind
direction
speed
KPH
gust
KPH
rain 1hr
cm
rain 24hr
cm
rain mn
cm
humidity
%
barometer
mb
20260502220145 19 247 4.8 6.4 0.00 0.00 0.00 35 1019.4
20260502215643 20 265 4.8 4.8 0.00 0.00 0.00 34 1019.5
20260502215139 19 267 0.0 0.0 0.00 0.00 0.00 37 1019.4
20260502214637 19 274 3.2 8.0 0.00 0.00 0.00 33 1019.4
20260502214133 20 279 6.4 6.4 0.00 0.00 0.00 34 1019.5
20260502213631 18 301 4.8 6.4 0.00 0.00 0.00 37 1019.5
20260502213128 20 273 8.0 8.0 0.00 0.00 0.00 35 1019.7
20260502212627 19 266 4.8 6.4 0.00 0.00 0.00 34 1019.6
20260502212125 20 292 4.8 6.4 0.00 0.00 0.00 39 1019.7
20260502211620 19 295 1.6 4.8 0.00 0.00 0.00 39 1019.7
20260502211117 19 45 6.4 6.4 0.00 0.00 0.00 35 1019.6
20260502210615 19 212 4.8 6.4 0.00 0.00 0.00 35 1019.8
20260502210111 20 272 8.0 11.3 0.00 0.00 0.00 35 1019.7
20260502205608 19 317 3.2 4.8 0.00 0.00 0.00 39 1019.6
20260502205105 20 311 8.0 8.0 0.00 0.00 0.00 34 1019.6
20260502204601 20 307 4.8 8.0 0.00 0.00 0.00 40 1020.2
20260502204100 19 82 1.6 1.6 0.00 0.00 0.00 38 1020.1
20260502203556 18 289 4.8 6.4 0.00 0.00 0.00 35 1020.1
20260502203054 18 275 8.0 11.3 0.00 0.00 0.00 34 1020.1
20260502202549 18 275 6.4 6.4 0.00 0.00 0.00 38 1020.2
20260502202048 18 246 6.4 6.4 0.00 0.00 0.00 36 1020.2
20260502201543 18 264 8.0 11.3 0.00 0.00 0.00 34 1020.3
20260502201040 19 258 3.2 4.8 0.00 0.00 0.00 37 1020.3
20260502200536 18 270 3.2 4.8 0.00 0.00 0.00 41 1020.2
20260502200034 20 319 6.4 8.0 0.00 0.00 0.00 35 1020.3
20260502195531 19 178 0.0 1.6 0.00 0.00 0.00 42 1020.4
20260502195027 18 179 0.0 1.6 0.00 0.00 0.00 37 1020.3
20260502194524 18 298 6.4 8.0 0.00 0.00 0.00 38 1020.4
20260502194020 18 262 6.4 6.4 0.00 0.00 0.00 43 1020.4
20260502193518 18 278 6.4 8.0 0.00 0.00 0.00 37 1020.5
20260502193014 18 282 6.4 6.4 0.00 0.00 0.00 38 1020.3
20260502192510 18 302 9.7 11.3 0.00 0.00 0.00 39 1020.3
20260502192008 18 253 8.0 11.3 0.00 0.00 0.00 38 1020.5
20260502191505 18 243 8.0 11.3 0.00 0.00 0.00 36 1020.2
20260502191002 18 309 8.0 11.3 0.00 0.00 0.00 38 1020.5
20260502190459 18 265 1.6 1.6 0.00 0.00 0.00 39 1020.6
20260502185955 18 266 4.8 6.4 0.00 0.00 0.00 37 1020.7
20260502185451 18 320 6.4 8.0 0.00 0.00 0.00 38 1020.5
20260502184948 18 275 6.4 6.4 0.00 0.00 0.00 40 1020.6
20260502184443 18 236 6.4 8.0 0.00 0.00 0.00 44 1020.6
20260502183940 18 298 1.6 1.6 0.00 0.00 0.00 41 1020.5
20260502183437 18 306 4.8 4.8 0.00 0.00 0.00 47 1020.6
20260502182931 18 290 4.8 6.4 0.00 0.00 0.00 43 1020.7
20260502182427 18 263 3.2 6.4 0.00 0.00 0.00 42 1020.7
20260502181924 18 255 6.4 8.0 0.00 0.00 0.00 39 1020.8
20260502181422 18 235 1.6 1.6 0.00 0.00 0.00 41 1020.7
20260502180920 17 252 3.2 4.8 0.00 0.00 0.00 40 1021.0
20260502180417 18 313 3.2 8.0 0.00 0.00 0.00 42 1021.0
20260502170336 18 278 3.2 4.8 0.00 0.00 0.00 44 1021.4
20260502164324 17 295 3.2 6.4 0.00 0.00 0.00 40 1021.6
20260502163819 17 252 1.6 1.6 0.00 0.00 0.00 43 1021.6
20260502163316 17 246 8.0 8.0 0.00 0.00 0.00 39 1021.6
20260502162813 17 251 1.6 1.6 0.00 0.00 0.00 41 1021.5
20260502162310 16 275 0.0 1.6 0.00 0.00 0.00 42 1021.5
20260502161807 16 305 6.4 8.0 0.00 0.00 0.00 40 1021.5
20260502161303 16 74 6.4 8.0 0.00 0.00 0.00 40 1021.5
20260502160801 16 9 3.2 6.4 0.00 0.00 0.00 38 1021.6
20260502160300 17 269 3.2 4.8 0.00 0.00 0.00 42 1021.6
20260502152229 15 250 11.3 16.1 0.00 0.00 0.00 40 1021.5
20260502151727 15 0 1.6 1.6 0.00 0.00 0.00 46 1021.5
20260502151224 15 356 3.2 6.4 0.00 0.00 0.00 41 1021.5
20260502150721 15 47 3.2 4.8 0.00 0.00 0.00 41 1021.6
20260502150218 15 290 4.8 6.4 0.00 0.00 0.00 46 1021.7
20260502130606 8 315 0.0 1.6 0.00 0.00 0.00 97 1020.9
20260502130104 8 290 0.0 0.0 0.00 0.00 0.00 99 1020.9
20260502123549 6 297 0.0 0.0 0.00 0.00 0.00 99 1020.7
20260502123046 5 85 0.0 0.0 0.00 0.00 0.00 99 1020.7
20260502122542 5 89 0.0 0.0 0.00 0.00 0.00 99 1020.5
20260502122040 5 89 0.0 0.0 0.00 0.00 0.00 99 1020.5
20260502121537 4 89 0.0 0.0 0.00 0.00 0.00 99 1020.4
20260502121035 4 263 0.0 0.0 0.00 0.00 0.00 99 1020.4
20260502120530 4 257 0.0 0.0 0.00 0.00 0.00 99 1020.1
20260502115526 3 290 0.0 0.0 0.00 0.00 0.00 99 1020.3
20260502115021 3 269 0.0 0.0 0.00 0.00 0.00 99 1020.2
20260502114518 3 279 0.0 0.0 0.00 0.00 0.00 99 1019.9
20260502114015 3 263 0.0 0.0 0.00 0.00 0.00 99 1019.8
20260502113512 3 263 0.0 0.0 0.00 0.00 0.00 99 1019.8
20260502113011 3 263 0.0 0.0 0.00 0.00 0.00 99 1020.0
20260502112508 3 277 0.0 0.0 0.00 0.00 0.00 98 1019.7
20260502112006 3 262 0.0 0.0 0.00 0.00 0.00 98 1020.0
20260502111503 3 225 0.0 0.0 0.00 0.00 0.00 98 1019.8
20260502111000 4 220 0.0 0.0 0.00 0.00 0.00 98 1019.6
20260502110458 4 233 0.0 0.0 0.00 0.00 0.00 98 1019.5
20260502105955 4 319 0.0 0.0 0.00 0.00 0.00 98 1019.5
20260502105453 3 273 0.0 0.0 0.00 0.00 0.00 98 1019.6
20260502104950 3 258 0.0 0.0 0.00 0.00 0.00 98 1019.6
20260502104447 4 258 0.0 0.0 0.00 0.00 0.00 98 1019.6
20260502103944 4 237 0.0 0.0 0.00 0.00 0.00 98 1019.4
20260502103442 4 242 0.0 0.0 0.00 0.00 0.00 98 1019.6
20260502102938 4 251 0.0 0.0 0.00 0.00 0.00 98 1019.4
20260502102436 4 262 0.0 0.0 0.00 0.00 0.00 98 1019.3
20260502101932 4 269 0.0 0.0 0.00 0.00 0.00 98 1019.2
20260502101431 4 210 1.6 1.6 0.00 0.00 0.00 98 1019.2
20260502100928 4 281 0.0 0.0 0.00 0.00 0.00 98 1018.9
20260502100428 4 7 1.6 1.6 0.00 0.00 0.00 98 1019.0
20260502091402 4 256 0.0 0.0 0.00 0.00 0.00 98 1018.7
20260502090859 4 221 0.0 0.0 0.00 0.00 0.00 98 1018.6
20260502090355 4 235 0.0 0.0 0.00 0.00 0.00 98 1018.7
20260502071250 4 224 0.0 0.0 0.00 0.00 0.00 96 1018.6
20260502070749 4 268 0.0 0.0 0.00 0.00 0.00 96 1018.6
20260502070246 4 289 0.0 0.0 0.00 0.00 0.00 96 1018.8
20260502065745 4 278 0.0 0.0 0.00 0.00 0.00 96 1018.7
20260502065242 4 278 0.0 0.0 0.00 0.00 0.00 96 1018.7
20260502064740 5 278 0.0 0.0 0.00 0.00 0.00 96 1018.7
20260502064238 5 278 0.0 0.0 0.00 0.00 0.00 96 1018.8
20260502063735 5 279 0.0 0.0 0.00 0.00 0.00 95 1018.7
20260502063233 5 279 0.0 0.0 0.00 0.00 0.00 95 1018.7
20260502062730 5 279 0.0 0.0 0.00 0.00 0.00 95 1018.8
20260502062227 5 279 0.0 0.0 0.00 0.00 0.00 95 1018.6
20260502061726 5 279 0.0 0.0 0.00 0.00 0.00 95 1018.7
20260502061223 5 279 0.0 0.0 0.00 0.00 0.00 95 1018.7
20260502060718 5 279 0.0 0.0 0.00 0.00 0.00 95 1018.4
20260502060214 5 279 0.0 0.0 0.00 0.00 0.00 94 1018.5
20260502055712 5 279 0.0 0.0 0.00 0.00 0.00 94 1018.6
20260502055210 5 279 0.0 0.0 0.00 0.00 0.00 94 1018.8
20260502054709 5 279 0.0 0.0 0.00 0.00 0.00 94 1018.7
20260502054206 5 279 0.0 0.0 0.00 0.00 0.00 94 1018.9
20260502053703 5 279 0.0 0.0 0.00 0.00 0.00 94 1018.7
20260502053200 5 279 0.0 0.0 0.00 0.00 0.00 93 1018.5
20260502052658 5 279 0.0 0.0 0.00 0.00 0.00 93 1018.7
20260502052156 5 279 0.0 0.0 0.00 0.00 0.00 93 1018.7
20260502051654 6 280 0.0 0.0 0.00 0.00 0.00 93 1018.7
20260502051152 6 276 0.0 0.0 0.00 0.00 0.00 93 1018.4
20260502050648 6 276 0.0 0.0 0.00 0.00 0.00 92 1018.8
20260502050145 6 279 0.0 0.0 0.00 0.00 0.00 92 1018.8
20260502045641 6 269 0.0 0.0 0.00 0.00 0.00 92 1018.5
20260502045139 6 269 0.0 0.0 0.00 0.00 0.00 92 1018.5
20260502044635 6 268 0.0 0.0 0.00 0.00 0.00 92 1018.6
20260502044132 6 269 0.0 0.0 0.00 0.00 0.00 92 1018.7
20260502043630 6 312 0.0 0.0 0.00 0.00 0.00 92 1018.9
20260502043127 6 312 0.0 0.0 0.00 0.00 0.00 92 1018.7
20260502042620 6 312 0.0 0.0 0.00 0.00 0.00 91 1018.8
20260502042118 6 312 0.0 0.0 0.00 0.00 0.00 91 1018.7
20260502041615 6 312 0.0 0.0 0.00 0.00 0.00 91 1018.7
20260502041112 6 312 0.0 0.0 0.00 0.00 0.00 90 1018.5
20260502040609 6 312 0.0 0.0 0.00 0.00 0.00 90 1018.7
20260502040106 6 312 0.0 0.0 0.00 0.00 0.00 89 1018.7
20260502035602 6 312 0.0 0.0 0.00 0.00 0.00 89 1018.6
20260502035059 6 312 0.0 0.0 0.00 0.00 0.00 88 1018.7
20260502034557 6 312 0.0 0.0 0.00 0.00 0.00 88 1018.6
20260502034055 7 312 0.0 0.0 0.00 0.00 0.00 88 1018.8
20260502033553 7 312 0.0 0.0 0.00 0.00 0.00 88 1018.7
20260502033051 7 312 0.0 0.0 0.00 0.00 0.00 87 1018.7
20260502032546 7 312 0.0 0.0 0.00 0.00 0.00 87 1018.8
20260502032043 7 312 0.0 0.0 0.00 0.00 0.00 86 1018.6
20260502031541 7 312 0.0 0.0 0.00 0.00 0.00 86 1018.7
20260502031039 7 312 0.0 0.0 0.00 0.00 0.00 85 1018.7
20260502030537 7 312 0.0 0.0 0.00 0.00 0.00 85 1018.7
20260502030035 7 312 0.0 0.0 0.00 0.00 0.00 84 1018.5
20260502025532 7 312 0.0 0.0 0.00 0.00 0.00 84 1018.7
20260502025030 8 312 0.0 0.0 0.00 0.00 0.00 83 1018.6
20260502024527 8 312 0.0 0.0 0.00 0.00 0.00 82 1018.7
20260502024025 8 312 0.0 0.0 0.00 0.00 0.00 82 1018.5
20260502023523 8 312 0.0 0.0 0.00 0.00 0.00 81 1018.5
20260502023020 8 312 0.0 0.0 0.00 0.00 0.00 79 1018.4
20260502022517 8 313 0.0 0.0 0.00 0.00 0.00 78 1018.5
20260502022015 8 313 0.0 0.0 0.00 0.00 0.00 78 1018.3
20260502021512 9 313 0.0 0.0 0.00 0.00 0.00 77 1018.3
20260502021008 9 313 0.0 0.0 0.00 0.00 0.00 76 1018.1
20260502020506 9 313 0.0 0.0 0.00 0.00 0.00 76 1018.2
20260502020002 9 313 0.0 0.0 0.00 0.00 0.00 75 1018.2
20260502015500 10 313 0.0 0.0 0.00 0.00 0.00 74 1018.2
20260502014957 10 313 0.0 0.0 0.00 0.00 0.00 73 1018.1
20260502014454 10 313 0.0 0.0 0.00 0.00 0.00 72 1018.1
20260502013950 10 313 0.0 0.0 0.00 0.00 0.00 71 1018.0
20260502013446 10 313 0.0 0.0 0.00 0.00 0.00 70 1018.0
20260502012942 11 313 0.0 0.0 0.00 0.00 0.00 69 1017.8
20260502012440 11 313 0.0 0.0 0.00 0.00 0.00 66 1017.8
20260502011937 11 313 0.0 0.0 0.00 0.00 0.00 66 1017.7
20260502011433 11 313 0.0 0.0 0.00 0.00 0.00 63 1017.7
20260502010930 12 313 0.0 0.0 0.00 0.00 0.00 62 1017.5
20260502010427 12 313 0.0 0.0 0.00 0.00 0.00 60 1017.5
20260502005923 12 313 0.0 0.0 0.00 0.00 0.00 57 1017.6
20260502005421 13 313 0.0 0.0 0.00 0.00 0.00 55 1017.3
20260502004919 14 314 0.0 0.0 0.00 0.00 0.00 52 1017.5
20260502004415 14 314 0.0 1.6 0.00 0.00 0.00 44 1017.2
20260502003913 14 314 0.0 1.6 0.00 0.00 0.00 46 1017.2
20260502003410 15 283 0.0 0.0 0.00 0.00 0.00 46 1017.2
20260502002906 15 283 0.0 0.0 0.00 0.00 0.00 44 1017.1
20260502002404 15 287 0.0 0.0 0.00 0.00 0.00 43 1017.0
20260502001901 15 269 0.0 0.0 0.00 0.00 0.00 43 1016.8
20260502001358 15 248 0.0 0.0 0.00 0.00 0.00 40 1016.9
20260502000855 16 282 0.0 0.0 0.00 0.00 0.00 42 1016.8
20260502000354 16 5 3.2 4.8 0.00 0.00 0.00 37 1016.6
20260501235849 16 79 0.0 1.6 0.00 0.00 0.00 38 1016.8
20260501235344 17 251 0.0 1.6 0.00 0.00 0.00 36 1016.7
20260501234840 17 247 0.0 0.0 0.00 0.00 0.00 38 1016.7
20260501234337 18 292 1.6 1.6 0.00 0.00 0.00 34 1016.6
20260501233836 18 282 0.0 0.0 0.00 0.00 0.00 34 1016.8
20260501233333 18 68 3.2 4.8 0.00 0.00 0.00 33 1016.7
20260501232828 18 347 6.4 8.0 0.00 0.00 0.00 32 1016.8
20260501232326 18 314 3.2 4.8 0.00 0.00 0.00 34 1016.7
20260501231823 18 295 6.4 8.0 0.00 0.00 0.00 34 1016.6
20260501231321 19 247 1.6 1.6 0.00 0.00 0.00 37 1016.8
20260501230819 18 287 0.0 1.6 0.00 0.00 0.00 34 1016.6
20260501230318 18 120 3.2 4.8 0.00 0.00 0.00 33 1016.8
20260501225815 18 46 3.2 4.8 0.00 0.00 0.00 35 1016.8
20260501225313 18 293 3.2 4.8 0.00 0.00 0.00 33 1016.8
20260501224809 19 272 0.0 1.6 0.00 0.00 0.00 36 1016.8
20260501224306 19 246 4.8 6.4 0.00 0.00 0.00 33 1016.8
20260501223802 19 247 3.2 4.8 0.00 0.00 0.00 33 1016.8
20260501223258 18 265 0.0 0.0 0.00 0.00 0.00 36 1016.8
20260501222754 20 281 4.8 6.4 0.00 0.00 0.00 35 1016.6
20260501222252 18 276 0.0 1.6 0.00 0.00 0.00 36 1016.7
20260501221749 19 296 11.3 12.9 0.00 0.00 0.00 30 1016.7
20260501221246 18 226 1.6 4.8 0.00 0.00 0.00 35 1016.6
20260501220744 18 36 8.0 11.3 0.00 0.00 0.00 31 1016.5